User: anonymous   Login
Location: State Camp
(41.2367°N, 77.7828°W)
Time: 18:01:18
(UTC-05:00)
Language:

ADEOS Rocket - Orbit

View from above orbital plane
View from above orbital plane
View from above satellite
View from above satellite

Ground track
Ground track

The orbit data is extracted from the following two-line orbital elements,

1 24279U 96046C   15059.57247508  .00000019  00000-0  72155-4 0  9991
2 24279 098.7118 099.9010 0299199 271.1416 257.9094 13.47015376911205
Epoch (UTC): 28 February 2015 13:44:21
Eccentricity: 0.0299199
inclination: 98.7118°
perigee height: 860 km
apogee height: 1306 km
right ascension of ascending node: 99.9010°
argument of perigee: 271.1416°
revolutions per day: 13.47015376
mean anomaly at epoch: 257.9094°
orbit number at epoch: 91120

The dashed part of the orbit path shows where the satellite is in the earth's shadow,  

DLR